Aeroporto :
LOGIN :

Iscrizione | Disclaimer

   EN    FR    IT 

 










Sommario :    VFR   VFR Marginale   IFR   IFR Intensivo   IFR Molto Intensivo
Visibilità : 
Base nubi : 
>= 8 km
>= 3000ft
5 / 8 km
1000 / 3000 ft
1500m / 5 km
500 / 1000 ft
800 / 1500m
200 / 500 ft
< 800m
< 200 ft
Simboli :   Temporali  Nebbia  Neve Forte  Precipitazioni Forti  Vento > 20 kt
SIGMETs :   Varie  Temporali  Ghiacco  Turbolenza  Onda orograficha  Ceneri Vulcaniche






- Altitudine del aeroporto : 939 ft


LKKB - Kbely Air Base

ULTIMO METAR :
  • 090700Z VRB02KT 1000 R24/P2000N SN BKN002 OVC018 M00/M01 Q1003 NOSIG

METARs OBSOLETI :
  • 090600Z 11004KT 2000 -SN FEW017 BKN030 M00/M01 Q1003 NOSIG

TAF TAF LKKB
Valido dal 09 a 06 ore il 10 a 06 ore UTC


090500Z 0906/1006 09006KT 9999 OVC020
TEMPO 0906/0913 VRB02KT 3000 SN BR BKN006
PROB30
TEMPO 0906/0910 2000 SN BR OVC004
BECMG 0911/0914 27005KT
TEMPO 0920/1004 5000 SN BKN010



MetMap, La meteo Aeronautica in un colpo d'occhio ! - Copyright ORBIFLY Dicembre 2007 - Disclaimer

ORBIFLY MET'MAP TEAM :

Programmazione e sviluppo : Alexandra Zaïnal
Concezione : Baudouin d'Aumeries
Aiuto per la programmazione : Marc-Olivier Méhu
Supporto tecnico e logistico : Manuel Goepfert
Aiuto per la traduzione : Arnaldo La Scala

Contatto : metmap@orbifly.com




FONTI E CREDITI :

   NOAA